Time,TemperatureF,DewpointF,PressureIn,WindDirection,WindDirectionDegrees,WindSpeedMPH,WindSpeedGustMPH,Humidity,HourlyPrecipIn,Conditions,Clouds,dailyrainin,SolarRadiationWatts/m^2,SoftwareType,DateUTC
2013-02-08 00:02:00,43.0,42.0,-100.00,East,86,4.0,9.0,96,0.00,,,0.25,0.000000,,2013-02-08 05:02:00,
2013-02-08 00:32:00,43.0,42.0,-100.00,East,85,2.0,7.0,97,0.00,,,0.25,0.000000,,2013-02-08 05:32:00,
2013-02-08 00:42:00,43.0,42.0,-100.00,East,85,2.0,7.0,97,0.00,,,0.25,0.000000,,2013-02-08 05:42:00,
2013-02-08 00:52:00,43.0,42.0,-100.00,East,85,2.0,7.0,97,0.00,,,0.25,0.000000,,2013-02-08 05:52:00,
2013-02-08 01:02:00,43.0,42.0,-100.00,East,85,2.0,7.0,97,0.00,,,0.25,0.000000,,2013-02-08 06:02:00,
2013-02-08 01:32:00,43.0,42.0,-100.00,ENE,64,2.0,6.0,97,0.00,,,0.25,0.000000,,2013-02-08 06:32:00,
2013-02-08 01:42:00,43.0,42.0,-100.00,ENE,64,2.0,6.0,97,0.00,,,0.25,0.000000,,2013-02-08 06:42:00,
2013-02-08 01:52:00,43.0,42.0,-100.00,ENE,64,2.0,6.0,97,0.00,,,0.25,0.000000,,2013-02-08 06:52:00,
2013-02-08 02:01:00,43.0,42.0,-100.00,ENE,64,2.0,6.0,97,0.00,,,0.25,0.000000,,2013-02-08 07:01:00,
2013-02-08 02:32:00,43.0,42.0,-100.00,NNE,28,2.0,7.0,96,0.00,,,0.25,0.000000,,2013-02-08 07:32:00,
2013-02-08 02:42:00,43.0,42.0,-100.00,NNE,28,2.0,7.0,96,0.00,,,0.25,0.000000,,2013-02-08 07:42:00,
2013-02-08 02:52:00,43.0,42.0,-100.00,NNE,28,2.0,7.0,96,0.00,,,0.25,0.000000,,2013-02-08 07:52:00,
2013-02-08 03:01:00,43.0,42.0,-100.00,NNE,28,2.0,7.0,96,0.00,,,0.25,0.000000,,2013-02-08 08:01:00,
2013-02-08 03:32:00,44.0,42.0,-100.00,NE,51,2.0,4.0,93,0.00,,,0.25,0.000000,,2013-02-08 08:32:00,
2013-02-08 03:42:00,44.0,42.0,-100.00,NE,51,2.0,4.0,93,0.00,,,0.25,0.000000,,2013-02-08 08:42:00,
2013-02-08 03:52:00,44.0,42.0,-100.00,NE,51,2.0,4.0,93,0.00,,,0.25,0.000000,,2013-02-08 08:52:00,
2013-02-08 04:03:00,44.0,42.0,-100.00,NE,51,2.0,4.0,93,0.00,,,0.25,0.000000,,2013-02-08 09:03:00,
2013-02-08 04:32:00,44.0,41.0,-100.00,ENE,63,3.0,6.0,90,0.00,,,0.25,0.000000,,2013-02-08 09:32:00,
2013-02-08 04:42:00,44.0,41.0,-100.00,ENE,63,3.0,6.0,90,0.00,,,0.25,0.000000,,2013-02-08 09:42:00,
2013-02-08 04:52:00,44.0,41.0,-100.00,ENE,63,3.0,6.0,90,0.00,,,0.25,0.000000,,2013-02-08 09:52:00,
2013-02-08 05:01:00,44.0,41.0,-100.00,ENE,63,3.0,6.0,90,0.00,,,0.25,0.000000,,2013-02-08 10:01:00,
2013-02-08 05:32:00,44.0,42.0,-100.00,North,7,2.0,5.0,93,0.00,,,0.25,0.000000,,2013-02-08 10:32:00,
2013-02-08 05:42:00,44.0,42.0,-100.00,North,7,2.0,5.0,93,0.00,,,0.25,0.000000,,2013-02-08 10:42:00,
2013-02-08 05:52:00,44.0,42.0,-100.00,North,7,2.0,5.0,93,0.00,,,0.25,0.000000,,2013-02-08 10:52:00,
2013-02-08 06:01:00,44.0,42.0,-100.00,North,7,2.0,5.0,93,0.00,,,0.25,0.000000,,2013-02-08 11:01:00,
2013-02-08 06:32:00,44.0,42.0,-100.00,NW,315,3.0,5.0,94,0.00,,,0.25,0.000000,,2013-02-08 11:32:00,
2013-02-08 06:42:00,44.0,42.0,-100.00,NW,315,3.0,5.0,94,0.00,,,0.25,0.000000,,2013-02-08 11:42:00,
2013-02-08 06:52:00,44.0,42.0,-100.00,NW,315,3.0,5.0,94,0.00,,,0.25,0.000000,,2013-02-08 11:52:00,
2013-02-08 07:02:00,44.0,42.0,-100.00,NW,315,3.0,5.0,94,0.00,,,0.25,0.000000,,2013-02-08 12:02:00,
2013-02-08 07:33:00,44.0,43.0,-100.00,WNW,284,3.0,6.0,96,0.00,,,0.25,0.000000,,2013-02-08 12:33:00,
2013-02-08 07:42:00,44.0,43.0,-100.00,WNW,284,3.0,6.0,96,0.00,,,0.25,0.000000,,2013-02-08 12:42:00,
2013-02-08 07:52:00,44.0,43.0,-100.00,WNW,284,3.0,6.0,96,0.00,,,0.25,0.000000,,2013-02-08 12:52:00,
2013-02-08 08:02:00,44.0,43.0,-100.00,WNW,284,3.0,6.0,96,0.00,,,0.25,0.000000,,2013-02-08 13:02:00,
2013-02-08 08:32:00,44.0,43.0,-100.00,West,268,3.0,4.0,95,0.00,,,0.25,8.000000,,2013-02-08 13:32:00,
2013-02-08 08:43:00,44.0,43.0,-100.00,West,268,3.0,4.0,95,0.00,,,0.25,8.000000,,2013-02-08 13:43:00,
2013-02-08 08:52:00,44.0,43.0,-100.00,West,268,3.0,4.0,95,0.00,,,0.25,8.000000,,2013-02-08 13:52:00,
2013-02-08 09:02:00,44.0,43.0,-100.00,West,268,3.0,4.0,95,0.00,,,0.25,8.000000,,2013-02-08 14:02:00,
2013-02-08 09:32:00,46.0,44.0,-100.00,West,269,2.0,4.0,93,0.00,,,0.25,40.000000,,2013-02-08 14:32:00,
2013-02-08 09:42:00,46.0,44.0,-100.00,West,269,2.0,4.0,93,0.00,,,0.25,40.000000,,2013-02-08 14:42:00,
2013-02-08 09:52:00,46.0,44.0,-100.00,West,269,2.0,4.0,93,0.00,,,0.25,40.000000,,2013-02-08 14:52:00,
2013-02-08 10:02:00,46.0,44.0,-100.00,West,269,2.0,4.0,93,0.00,,,0.25,40.000000,,2013-02-08 15:02:00,
2013-02-08 10:32:00,48.0,45.0,-100.00,SW,236,2.0,4.0,91,0.00,,,0.25,102.000000,,2013-02-08 15:32:00,
2013-02-08 10:42:00,48.0,45.0,-100.00,SW,236,2.0,4.0,91,0.00,,,0.25,102.000000,,2013-02-08 15:42:00,
2013-02-08 10:52:00,48.0,45.0,-100.00,SW,236,2.0,4.0,91,0.00,,,0.25,102.000000,,2013-02-08 15:52:00,
2013-02-08 11:02:00,48.0,45.0,-100.00,SW,236,2.0,4.0,91,0.00,,,0.25,102.000000,,2013-02-08 16:02:00,
2013-02-08 11:33:00,52.0,47.0,-100.00,SW,229,3.0,8.0,84,0.00,,,0.25,232.000000,,2013-02-08 16:33:00,
2013-02-08 11:42:00,52.0,47.0,-100.00,SW,229,3.0,8.0,84,0.00,,,0.25,232.000000,,2013-02-08 16:42:00,
2013-02-08 11:52:00,52.0,47.0,-100.00,SW,229,3.0,8.0,84,0.00,,,0.25,232.000000,,2013-02-08 16:52:00,
2013-02-08 12:04:00,52.0,47.0,-100.00,SW,229,3.0,8.0,84,0.00,,,0.25,232.000000,,2013-02-08 17:04:00,
2013-02-08 12:33:00,52.0,46.0,-100.00,WSW,245,3.0,7.0,81,0.00,,,0.25,211.000000,,2013-02-08 17:33:00,
2013-02-08 12:42:00,52.0,46.0,-100.00,WSW,245,3.0,7.0,81,0.00,,,0.25,211.000000,,2013-02-08 17:42:00,
2013-02-08 12:53:00,52.0,46.0,-100.00,WSW,245,3.0,7.0,81,0.00,,,0.25,211.000000,,2013-02-08 17:53:00,
2013-02-08 13:03:00,52.0,46.0,-100.00,WSW,245,3.0,7.0,81,0.00,,,0.25,211.000000,,2013-02-08 18:03:00,
2013-02-08 13:36:00,54.0,46.0,-100.00,West,267,4.0,9.0,74,0.00,,,0.22,298.000000,,2013-02-08 18:36:00,
2013-02-08 13:44:00,54.0,46.0,-100.00,West,267,4.0,9.0,74,0.00,,,0.22,298.000000,,2013-02-08 18:44:00,
2013-02-08 13:53:00,54.0,46.0,-100.00,West,267,4.0,9.0,74,0.00,,,0.22,298.000000,,2013-02-08 18:53:00,
2013-02-08 14:02:00,54.0,46.0,-100.00,West,267,4.0,9.0,74,0.00,,,0.22,298.000000,,2013-02-08 19:02:00,
2013-02-08 14:33:00,57.0,47.0,-100.00,West,263,4.0,10.0,70,0.00,,,0.19,435.000000,,2013-02-08 19:33:00,
2013-02-08 14:42:00,57.0,47.0,-100.00,West,263,4.0,10.0,70,0.00,,,0.19,435.000000,,2013-02-08 19:42:00,
2013-02-08 14:52:00,57.0,47.0,-100.00,West,263,4.0,10.0,70,0.00,,,0.19,435.000000,,2013-02-08 19:52:00,
2013-02-08 15:02:00,57.0,47.0,-100.00,West,263,4.0,10.0,70,0.00,,,0.19,435.000000,,2013-02-08 20:02:00,
2013-02-08 15:32:00,55.0,44.0,-100.00,West,269,3.0,10.0,66,0.00,,,0.18,217.000000,,2013-02-08 20:32:00,
2013-02-08 15:42:00,55.0,44.0,-100.00,West,269,3.0,10.0,66,0.00,,,0.18,217.000000,,2013-02-08 20:42:00,
2013-02-08 15:52:00,55.0,44.0,-100.00,West,269,3.0,10.0,66,0.00,,,0.18,217.000000,,2013-02-08 20:52:00,
2013-02-08 16:02:00,55.0,44.0,-100.00,West,269,3.0,10.0,66,0.00,,,0.18,217.000000,,2013-02-08 21:02:00,
2013-02-08 16:33:00,54.0,40.0,-100.00,WNW,285,4.0,12.0,59,0.00,,,0.15,173.000000,,2013-02-08 21:33:00,
2013-02-08 16:42:00,54.0,40.0,-100.00,WNW,285,4.0,12.0,59,0.00,,,0.15,173.000000,,2013-02-08 21:42:00,
2013-02-08 16:52:00,54.0,40.0,-100.00,WNW,285,4.0,12.0,59,0.00,,,0.15,173.000000,,2013-02-08 21:52:00,
2013-02-08 17:02:00,54.0,40.0,-100.00,WNW,285,4.0,12.0,59,0.00,,,0.15,173.000000,,2013-02-08 22:02:00,
2013-02-08 17:32:00,53.0,30.0,-100.00,WNW,283,5.0,11.0,41,0.00,,,0.11,105.000000,,2013-02-08 22:32:00,
2013-02-08 17:42:00,53.0,30.0,-100.00,WNW,283,5.0,11.0,41,0.00,,,0.11,105.000000,,2013-02-08 22:42:00,
2013-02-08 17:52:00,53.0,30.0,-100.00,WNW,283,5.0,11.0,41,0.00,,,0.11,105.000000,,2013-02-08 22:52:00,
2013-02-08 18:02:00,53.0,30.0,-100.00,WNW,283,5.0,11.0,41,0.00,,,0.11,105.000000,,2013-02-08 23:02:00,
2013-02-08 18:32:00,50.0,28.0,-100.00,WNW,294,5.0,15.0,43,0.00,,,0.06,30.000000,,2013-02-08 23:32:00,
2013-02-08 18:42:00,50.0,28.0,-100.00,WNW,294,5.0,15.0,43,0.00,,,0.06,30.000000,,2013-02-08 23:42:00,
2013-02-08 18:52:00,50.0,28.0,-100.00,WNW,294,5.0,15.0,43,0.00,,,0.06,30.000000,,2013-02-08 23:52:00,
2013-02-08 19:02:00,50.0,28.0,-100.00,WNW,294,5.0,15.0,43,0.00,,,0.06,30.000000,,2013-02-09 00:02:00,
2013-02-08 19:32:00,47.0,28.0,-100.00,WNW,303,3.0,9.0,47,0.00,,,0.02,1.000000,,2013-02-09 00:32:00,
2013-02-08 19:42:00,47.0,28.0,-100.00,WNW,303,3.0,9.0,47,0.00,,,0.02,1.000000,,2013-02-09 00:42:00,
2013-02-08 19:52:00,47.0,28.0,-100.00,WNW,303,3.0,9.0,47,0.00,,,0.02,1.000000,,2013-02-09 00:52:00,
2013-02-08 20:02:00,47.0,28.0,-100.00,WNW,303,3.0,9.0,47,0.00,,,0.02,1.000000,,2013-02-09 01:02:00,
2013-02-08 20:32:00,43.0,25.0,-100.00,West,261,3.0,5.0,49,0.00,,,-99.99,0.000000,,2013-02-09 01:32:00,
2013-02-08 20:42:00,43.0,25.0,-100.00,West,261,3.0,5.0,49,0.00,,,-99.99,0.000000,,2013-02-09 01:42:00,
2013-02-08 20:52:00,43.0,25.0,-100.00,West,261,3.0,5.0,49,0.00,,,-99.99,0.000000,,2013-02-09 01:52:00,
2013-02-08 21:01:00,43.0,25.0,-100.00,West,261,3.0,5.0,49,0.00,,,-99.99,0.000000,,2013-02-09 02:01:00,
2013-02-08 21:32:00,41.0,27.0,-100.00,West,275,3.0,7.0,58,0.00,,,0.00,0.000000,,2013-02-09 02:32:00,
2013-02-08 21:42:00,41.0,27.0,-100.00,West,275,3.0,7.0,58,0.00,,,0.00,0.000000,,2013-02-09 02:42:00,
2013-02-08 21:53:00,41.0,27.0,-100.00,West,275,3.0,7.0,58,0.00,,,0.00,0.000000,,2013-02-09 02:53:00,
2013-02-08 22:02:00,41.0,27.0,-100.00,West,275,3.0,7.0,58,0.00,,,0.00,0.000000,,2013-02-09 03:02:00,
2013-02-08 22:32:00,40.0,27.0,-100.00,SW,236,2.0,7.0,60,0.00,,,0.00,0.000000,,2013-02-09 03:32:00,
2013-02-08 22:42:00,40.0,27.0,-100.00,SW,236,2.0,7.0,60,0.00,,,0.00,0.000000,,2013-02-09 03:42:00,
2013-02-08 22:53:00,40.0,27.0,-100.00,SW,236,2.0,7.0,60,0.00,,,0.00,0.000000,,2013-02-09 03:53:00,
2013-02-08 23:03:00,40.0,27.0,-100.00,SW,236,2.0,7.0,60,0.00,,,0.00,0.000000,,2013-02-09 04:03:00,
2013-02-08 23:32:00,41.0,25.0,-100.00,NW,314,6.0,10.0,53,0.00,,,0.00,0.000000,,2013-02-09 04:32:00,
2013-02-08 23:42:00,41.0,25.0,-100.00,NW,314,6.0,10.0,53,0.00,,,0.00,0.000000,,2013-02-09 04:42:00,
2013-02-08 23:52:00,41.0,25.0,-100.00,NW,314,6.0,10.0,53,0.00,,,0.00,0.000000,,2013-02-09 04:52:00,